Satellite-Ground Cal/Val Region Overpasses Predictions

Prediction of Satellite NPP Overpassing Cal/Val Region: PacNW

Region Location: (Latitude: 10.00, Longitude: 139.50) to (Latitude: 22.70, Longitude: 165.60).

Table of predicted overpasses for the next 14.0 days since TLE Epoch: 5/18/2018
Interval Starting Time Starting Location Ending Time Ending Location
1 05/18/2018 14:39:23 ( 22.67, 165.07) 05/18/2018 14:42:58 ( 10.05, 162.06)
2 05/18/2018 16:20:53 ( 22.66, 139.69) 05/18/2018 16:21:05 ( 21.96, 139.51)
3 05/19/2018 03:29:57 ( 10.03, 147.21) 05/19/2018 03:33:32 ( 22.65, 144.21)
4 05/19/2018 16:01:51 ( 22.64, 144.44) 05/19/2018 16:05:26 ( 10.02, 141.44)
5 05/20/2018 03:10:56 ( 10.05, 151.96) 05/20/2018 03:14:31 ( 22.67, 148.96)
6 05/20/2018 15:42:49 ( 22.68, 149.21) 05/20/2018 15:46:25 ( 10.00, 146.19)
7 05/21/2018 02:51:54 ( 10.01, 156.73) 05/21/2018 02:55:30 ( 22.69, 153.71)
8 05/21/2018 15:23:47 ( 22.66, 153.96) 05/21/2018 15:27:22 ( 10.04, 150.96)
9 05/22/2018 02:32:52 ( 10.04, 161.48) 05/22/2018 02:36:27 ( 22.66, 158.48)
10 05/22/2018 15:04:45 ( 22.70, 158.73) 05/22/2018 15:08:21 ( 10.02, 155.71)
11 05/23/2018 02:14:39 ( 12.88, 165.59) 05/23/2018 02:17:26 ( 22.68, 163.23)
12 05/23/2018 03:55:20 ( 10.01, 140.88) 05/23/2018 03:57:00 ( 15.88, 139.51)
13 05/23/2018 14:45:43 ( 22.67, 163.48) 05/23/2018 14:49:18 ( 10.05, 160.48)
14 05/24/2018 03:36:18 ( 10.03, 145.63) 05/24/2018 03:39:53 ( 22.65, 142.62)
15 05/24/2018 14:29:50 ( 11.62, 165.60) 05/24/2018 14:30:17 ( 10.03, 165.23)
16 05/24/2018 16:08:12 ( 22.64, 142.86) 05/24/2018 16:11:47 ( 10.02, 139.86)
17 05/25/2018 03:17:17 ( 10.05, 150.38) 05/25/2018 03:20:52 ( 22.67, 147.38)
18 05/25/2018 15:49:09 ( 22.68, 147.63) 05/25/2018 15:52:44 ( 10.06, 144.62)
19 05/26/2018 02:58:14 ( 10.02, 155.15) 05/26/2018 03:01:50 ( 22.70, 152.13)
20 05/26/2018 15:30:08 ( 22.65, 152.38) 05/26/2018 15:33:43 ( 10.03, 149.38)
21 05/27/2018 02:39:13 ( 10.04, 159.90) 05/27/2018 02:42:48 ( 22.66, 156.90)
22 05/27/2018 15:11:05 ( 22.69, 157.15) 05/27/2018 15:14:41 ( 10.01, 154.13)
23 05/28/2018 02:20:10 ( 10.01, 164.67) 05/28/2018 02:23:46 ( 22.69, 161.65)
24 05/28/2018 14:52:04 ( 22.66, 161.90) 05/28/2018 14:55:39 ( 10.04, 158.89)
25 05/29/2018 03:42:39 ( 10.04, 144.04) 05/29/2018 03:46:14 ( 22.66, 141.04)
26 05/29/2018 14:34:16 ( 18.36, 165.60) 05/29/2018 14:36:38 ( 10.02, 163.65)
27 05/29/2018 16:14:32 ( 22.69, 141.29) 05/29/2018 16:16:37 ( 15.36, 139.51)
28 05/30/2018 03:23:36 ( 10.01, 148.81) 05/30/2018 03:27:12 ( 22.69, 145.79)
29 05/30/2018 15:55:30 ( 22.66, 146.04) 05/30/2018 15:59:05 ( 10.04, 143.04)
30 05/31/2018 03:04:35 ( 10.04, 153.56) 05/31/2018 03:08:10 ( 22.66, 150.56)
31 05/31/2018 15:36:28 ( 22.69, 150.81) 05/31/2018 15:40:04 ( 10.02, 147.79)


NCC Satellite Cal/Val Overpasses Prediction Service
